#timestamp,LO_Frequency,Hit,StdDev 
1580703075.6,286046998.4,P
1580703095.4,286046999.1,N
1580703115.3,286046999.6,N
1580703135.1,286046999.5,N
1580703155.9,286046999.1,N
1580703175.7,286046997.0,Y
1580703195.5,286046999.0,P
1580703215.4,286046998.8,P
1580703235.2,286046999.5,P
1580703255.1,286046999.5,N
1580703256.0,286046999.5,N
1580703275.8,286046998.2,Y
1580703295.6,286047001.0,P
1580703315.5,286047001.1,N
1580703335.3,286047001.1,N
1580703355.1,286046998.2,N
1580703375.9,286047000.5,N
1580703395.7,286047000.2,N
1580703415.6,286046999.7,N
1580703435.4,286047003.6,Y
1580703455.2,286047003.8,P
1580703475.1,286047004.2,N
1580703476.0,286047004.2,N
1580703495.8,286047003.6,N
1580703515.6,286047004.2,N
1580703535.5,286047001.6,N
1580703555.3,286047002.8,N
1580703575.2,286047000.5,N
1580703595.9,286047001.1,N
1580703615.7,286047000.5,N
1580703635.6,286047002.8,N
1580703655.4,286047002.8,N
1580703675.2,286047002.7,N
1580703695.1,286047001.6,N
1580703696.0,286047001.6,N
1580703715.8,286047002.4,N
1580703735.7,286046999.9,N
1580703755.5,286046998.6,N
1580703775.3,286046998.4,N
1580703795.2,286046998.6,N
1580703815.0,286046999.5,N
1580703815.9,286046999.5,N
1580703835.7,286046999.5,N
1580703855.6,286046996.6,N
1580703875.4,286046997.0,N
1580703895.3,286047001.2,N
1580703915.1,286046998.1,N
1580703916.0,286046998.1,N
1580703935.8,286046998.5,N
1580703955.7,286047000.5,N
1580703975.5,286046999.2,N
1580703995.3,286046999.6,N
1580704015.2,286046998.4,N
1580704035.0,286046999.1,N
1580704035.9,286046999.1,N
1580704055.8,286046999.1,N
1580704075.6,286046999.1,N
1580704095.4,286046999.5,N
1580704115.3,286046997.0,N
1580704135.1,286046997.6,N
1580704155.8,286046997.3,N
1580704175.7,286046997.5,N
1580704195.5,286046996.5,N
1580704215.4,286046999.2,N
1580704235.2,286046998.3,N
1580704255.0,286046996.5,N
1580704255.9,286046996.5,Y
1580704275.8,286046999.2,P
1580704295.6,286046998.6,P
1580704315.5,286046998.6,P
1580704335.3,286047001.1,Y
1580704355.1,286047002.2,P
1580704375.9,286047002.3,N
1580704395.7,286047000.1,N
1580704415.5,286046999.9,N
1580704435.4,286047000.7,N
1580704455.2,286046999.8,N
1580704475.1,286047002.4,N
1580704476.0,286047002.4,N
1580704495.8,286046999.8,N
1580704515.6,286047000.4,N
1580704535.5,286047000.8,N
1580704555.3,286047000.7,N
1580704575.1,286046998.1,N
1580704595.9,286046998.3,N
1580704615.7,286046998.9,N
1580704635.6,286046998.3,N
1580704655.4,286046998.3,N
1580704675.2,286046999.6,N
1580704695.1,286046999.5,N
1580704696.0,286046999.5,N
1580704715.8,286046999.1,N
1580704735.7,286046998.8,N
1580704755.5,286046998.8,N
1580704775.3,286046998.9,N
1580704795.2,286046998.6,N
1580704815.9,286046998.2,N
1580704835.7,286047000.8,N
1580704855.6,286047000.2,N
1580704875.4,286047000.4,N
1580704895.3,286047000.4,N
1580704915.1,286046998.3,N
1580704916.0,286046998.3,N
1580704935.8,286046999.0,N
1580704955.7,286046996.5,Y
1580704975.5,286046999.0,P
1580704995.3,286046999.5,N
1580705015.2,286046997.1,P
1580705035.0,286046996.9,Y
1580705035.9,286046996.9,P
1580705055.8,286046998.4,N
1580705075.6,286046998.5,N
1580705095.4,286046999.4,N
1580705115.3,286046998.2,N
1580705135.1,286046998.3,N
1580705155.9,286046998.3,N
1580705175.7,286046998.1,N
1580705195.5,286047001.1,N
1580705215.4,286047000.4,N
1580705235.2,286047000.7,N
1580705255.0,286047001.0,N
1580705255.9,286047001.0,N
1580705275.8,286046998.4,N
1580705295.6,286046998.8,N
1580705315.5,286047001.0,N
1580705335.3,286047001.2,N
1580705355.1,286046998.4,N
1580705375.9,286046998.5,N
1580705395.7,286047000.8,N
1580705415.5,286047000.6,N
1580705435.4,286046999.7,N
1580705455.2,286047000.5,N
1580705475.1,286047000.4,N
1580705476.0,286047000.4,N
1580705495.8,286047000.9,N
1580705515.6,286046999.7,N
1580705535.5,286047002.8,N
1580705555.3,286047001.8,N
1580705575.1,286047002.5,N
1580705595.9,286047001.3,N
1580705615.7,286047001.3,N
1580705635.6,286047003.7,N
1580705655.4,286047003.6,N
1580705675.2,286047003.6,N
1580705695.1,286047005.6,Y
1580705696.0,286047005.6,P
1580705715.8,286047002.9,N
1580705735.6,286047005.3,N
1580705755.5,286047006.0,N
1580705775.3,286047005.2,N
1580705795